• în România
  • Lista ţărilor
  • Pe 7 zile
  • Temperatura apei
  • Hartă satelitară
  • Meteo pe hartă
  • Widget-uri
  • user-avatar
    Intrare

    Meteo pe oră la Gagarino

    Astăzi, 21 Septembrie, Vineri

    Timp Temperatura Precipitaţii Vânt Presiune Umiditate
    00:00 +16°C° 0 mm 2 m/s 746 mmHg 87%
    01:00 +16°C° 0 mm 2 m/s 746 mmHg 88%
    02:00 +15°C° 0 mm 1 m/s 746 mmHg 89%
    03:00 +15°C° 0 mm 1 m/s 747 mmHg 90%
    04:00 +15°C° 0 mm 1 m/s 747 mmHg 90%
    05:00 +15°C° 0 mm 1 m/s 747 mmHg 91%
    06:00 +14°C° 0 mm 1 m/s 747 mmHg 91%
    07:00 +16°C° 0 mm 1 m/s 747 mmHg 87%
    08:00 +18°C° 0 mm 1 m/s 748 mmHg 82%
    09:00 +19°C° 0 mm 1 m/s 748 mmHg 77%
    10:00 +20°C° 0 mm 2 m/s 748 mmHg 72%
    11:00 +21°C° 0 mm 2 m/s 748 mmHg 66%
    12:00 +24°C° 0 mm 2 m/s 748 mmHg 61%
    13:00 +24°C° 0 mm 2 m/s 748 mmHg 58%
    14:00 +25°C° 0 mm 2 m/s 748 mmHg 55%
    15:00 +25°C° 0 mm 2 m/s 748 mmHg 52%
    16:00 +24°C° 0 mm 1 m/s 748 mmHg 57%
    17:00 +23°C° 0 mm 1 m/s 748 mmHg 61%
    18:00 +22°C° 0 mm 1 m/s 748 mmHg 66%
    19:00 +21°C° 0 mm 1 m/s 748 mmHg 69%
    20:00 +20°C° 0 mm 1 m/s 748 mmHg 71%
    21:00 +19°C° 0 mm 1 m/s 748 mmHg 74%
    22:00 +19°C° 0 mm 1 m/s 748 mmHg 75%
    23:00 +19°C° 0 mm 1 m/s 748 mmHg 77%

    Mâine, 22 Septembrie, Sâmbătă

    Timp Temperatura Precipitaţii Vânt Presiune Umiditate
    00:00 +17°C° 0 mm 2 m/s 748 mmHg 78%
    01:00 +17°C° 0 mm 2 m/s 748 mmHg 79%
    02:00 +17°C° 0 mm 2 m/s 748 mmHg 80%
    03:00 +16°C° 0 mm 2 m/s 748 mmHg 81%
    04:00 +16°C° 0 mm 2 m/s 748 mmHg 82%
    05:00 +16°C° 0 mm 2 m/s 748 mmHg 83%
    06:00 +15°C° 0 mm 2 m/s 748 mmHg 83%
    07:00 +17°C° 0 mm 3 m/s 748 mmHg 79%
    08:00 +18°C° 0 mm 3 m/s 748 mmHg 74%
    09:00 +19°C° 0 mm 3 m/s 748 mmHg 70%
    10:00 +21°C° 0 mm 4 m/s 747 mmHg 65%
    11:00 +22°C° 0 mm 4 m/s 747 mmHg 60%
    12:00 +25°C° 0 mm 5 m/s 747 mmHg 56%
    13:00 +25°C° 0 mm 5 m/s 747 mmHg 54%
    14:00 +26°C° 0 mm 5 m/s 746 mmHg 52%
    15:00 +26°C° 0 mm 5 m/s 746 mmHg 50%
    16:00 +25°C° 0 mm 5 m/s 746 mmHg 55%
    17:00 +23°C° 0 mm 4 m/s 745 mmHg 60%
    18:00 +21°C° 0 mm 4 m/s 745 mmHg 65%
    19:00 +21°C° 0 mm 4 m/s 745 mmHg 64%
    20:00 +20°C° 0 mm 5 m/s 744 mmHg 63%
    21:00 +19°C° 0 mm 5 m/s 744 mmHg 63%
    22:00 +19°C° 0 mm 5 m/s 744 mmHg 62%
    23:00 +19°C° 0 mm 5 m/s 743 mmHg 61%

    Poimâine, 23 Septembrie, Duminică

    Timp Temperatura Precipitaţii Vânt Presiune Umiditate
    00:00 +19°C° 0 mm 5 m/s 743 mmHg 61%
    01:00 +17°C° 0 mm 5 m/s 742 mmHg 62%
    02:00 +17°C° 0 mm 5 m/s 742 mmHg 64%
    03:00 +16°C° 0 mm 5 m/s 741 mmHg 66%
    04:00 +16°C° 0 mm 5 m/s 741 mmHg 66%
    05:00 +16°C° 0 mm 6 m/s 740 mmHg 67%
    06:00 +16°C° 0 mm 6 m/s 740 mmHg 67%
    07:00 +16°C° 0 mm 6 m/s 739 mmHg 66%
    08:00 +17°C° 0 mm 6 m/s 739 mmHg 66%
    09:00 +17°C° 0 mm 6 m/s 739 mmHg 65%
    10:00 +19°C° 0.1 mm 6 m/s 738 mmHg 64%
    11:00 +20°C° 0.1 mm 7 m/s 738 mmHg 62%
    12:00 +20°C° 0.1 mm 7 m/s 738 mmHg 61%
    13:00 +17°C° 0.8 mm 7 m/s 738 mmHg 68%
    14:00 +15°C° 0.8 mm 7 m/s 738 mmHg 74%
    15:00 +12°C° 0.8 mm 8 m/s 738 mmHg 81%
    16:00 +11°C° 0.6 mm 7 m/s 738 mmHg 82%
    17:00 +9°C° 0.6 mm 7 m/s 739 mmHg 83%
    18:00 +8°C° 0.6 mm 6 m/s 739 mmHg 84%
    19:00 +9°C° 0.1 mm 6 m/s 739 mmHg 84%
    20:00 +9°C° 0.1 mm 5 m/s 740 mmHg 84%
    21:00 +9°C° 0.1 mm 5 m/s 740 mmHg 84%
    22:00 +10°C° 0 mm 4 m/s 740 mmHg 86%
    23:00 +10°C° 0 mm 4 m/s 740 mmHg 87%

    24 Septembrie, Luni

    Timp Temperatura Precipitaţii Vânt Presiune Umiditate
    00:00 +8°C° 0 mm 4 m/s 741 mmHg 88%
    01:00 +8°C° 0 mm 4 m/s 741 mmHg 89%
    02:00 +7°C° 0 mm 4 m/s 741 mmHg 91%
    03:00 +8°C° 0 mm 3 m/s 741 mmHg 92%
    04:00 +8°C° 0 mm 3 m/s 741 mmHg 93%
    05:00 +6°C° 0 mm 4 m/s 741 mmHg 93%
    06:00 +6°C° 0 mm 4 m/s 742 mmHg 94%
    07:00 +7°C° 0 mm 4 m/s 742 mmHg 90%
    08:00 +8°C° 0 mm 4 m/s 742 mmHg 87%
    09:00 +10°C° 0 mm 4 m/s 742 mmHg 83%
    10:00 +11°C° 0 mm 4 m/s 742 mmHg 77%
    11:00 +12°C° 0 mm 4 m/s 742 mmHg 71%
    12:00 +14°C° 0 mm 4 m/s 742 mmHg 66%
    13:00 +14°C° 0 mm 4 m/s 742 mmHg 64%
    14:00 +14°C° 0 mm 4 m/s 742 mmHg 62%
    15:00 +16°C° 0 mm 3 m/s 742 mmHg 60%
    16:00 +14°C° 0 mm 3 m/s 741 mmHg 63%
    17:00 +13°C° 0 mm 3 m/s 741 mmHg 67%
    18:00 +13°C° 0 mm 2 m/s 741 mmHg 71%
    19:00 +12°C° 0 mm 3 m/s 740 mmHg 70%
    20:00 +12°C° 0 mm 4 m/s 740 mmHg 70%
    21:00 +12°C° 0 mm 4 m/s 740 mmHg 69%
    22:00 +12°C° 0.4 mm 5 m/s 739 mmHg 69%
    23:00 +11°C° 0.4 mm 6 m/s 738 mmHg 69%

    25 Septembrie, Marţi

    Timp Temperatura Precipitaţii Vânt Presiune Umiditate
    00:00 +10°C° 0.4 mm 7 m/s 737 mmHg 69%
    01:00 +10°C° 1.2 mm 8 m/s 736 mmHg 72%
    02:00 +10°C° 1.2 mm 9 m/s 735 mmHg 76%
    03:00 +8°C° 1.2 mm 9 m/s 734 mmHg 79%
    04:00 +8°C° 1.8 mm 10 m/s 734 mmHg 82%
    05:00 +8°C° 1.8 mm 10 m/s 733 mmHg 85%
    06:00 +9°C° 1.8 mm 10 m/s 732 mmHg 87%
    07:00 +10°C° 0.3 mm 9 m/s 732 mmHg 85%
    08:00 +10°C° 0.3 mm 9 m/s 732 mmHg 83%
    09:00 +10°C° 0.3 mm 8 m/s 731 mmHg 81%
    10:00 +10°C° 0.1 mm 8 m/s 731 mmHg 76%
    11:00 +11°C° 0.1 mm 9 m/s 731 mmHg 72%
    12:00 +11°C° 0.1 mm 9 m/s 731 mmHg 67%
    13:00 +11°C° 0.1 mm 9 m/s 731 mmHg 67%
    14:00 +11°C° 0.1 mm 9 m/s 730 mmHg 68%
    15:00 +10°C° 0.1 mm 9 m/s 730 mmHg 68%
    16:00 +10°C° 0.1 mm 8 m/s 730 mmHg 69%
    17:00 +9°C° 0.1 mm 8 m/s 730 mmHg 70%
    18:00 +9°C° 0.1 mm 7 m/s 729 mmHg 72%
    19:00 +8°C° 0.1 mm 7 m/s 729 mmHg 74%
    20:00 +8°C° 0.1 mm 7 m/s 729 mmHg 77%
    21:00 +8°C° 0.1 mm 7 m/s 729 mmHg 79%
    22:00 +8°C° 0.2 mm 6 m/s 729 mmHg 81%
    23:00 +7°C° 0.2 mm 6 m/s 729 mmHg 83%

    26 Septembrie, Miercuri

    Timp Temperatura Precipitaţii Vânt Presiune Umiditate
    00:00 +7°C° 0.2 mm 5 m/s 729 mmHg 84%
    01:00 +7°C° 0.3 mm 5 m/s 729 mmHg 86%
    02:00 +7°C° 0.3 mm 5 m/s 730 mmHg 88%
    03:00 +7°C° 0.3 mm 5 m/s 730 mmHg 89%
    04:00 +7°C° 0.4 mm 5 m/s 731 mmHg 89%
    05:00 +7°C° 0.4 mm 6 m/s 731 mmHg 88%
    06:00 +6°C° 0.4 mm 7 m/s 732 mmHg 88%
    07:00 +5°C° 0.1 mm 7 m/s 733 mmHg 86%
    08:00 +5°C° 0.1 mm 7 m/s 734 mmHg 85%
    09:00 +5°C° 0.1 mm 8 m/s 734 mmHg 83%
    10:00 +5°C° 0.1 mm 8 m/s 735 mmHg 82%
    11:00 +5°C° 0.1 mm 7 m/s 736 mmHg 82%
    12:00 +5°C° 0.1 mm 7 m/s 738 mmHg 81%
    13:00 +5°C° 0.2 mm 7 m/s 738 mmHg 81%
    14:00 +5°C° 0.2 mm 7 m/s 739 mmHg 81%
    15:00 +5°C° 0.2 mm 7 m/s 740 mmHg 80%
    16:00 +5°C° 0.1 mm 6 m/s 741 mmHg 81%
    17:00 +5°C° 0.1 mm 6 m/s 741 mmHg 81%
    18:00 +6°C° 0.1 mm 5 m/s 742 mmHg 81%
    19:00 +5°C° 0 mm 5 m/s 743 mmHg 82%
    20:00 +5°C° 0 mm 5 m/s 743 mmHg 83%
    21:00 +5°C° 0 mm 5 m/s 744 mmHg 83%
    22:00 +5°C° 0 mm 5 m/s 744 mmHg 84%
    23:00 +3°C° 0 mm 5 m/s 745 mmHg 85%
    Arată mai mult